Meriden, CT

12:29 PM EST on February 27, 2017 (GMT -0500)
Meriden Markham Municipal

Weather History for KMMK - January, 2013

Change the Weather History Date:

Sunday, January 13, 2013

  Actual Average (KOXC) Record (KOXC)
Temperature  
Mean Temperature 42 °F -  
Max Temperature 46 °F 29 °F 55 °F (2005)
Min Temperature 39 °F 17 °F 8 °F (2001)
Degree Days  
Heating Degree Days 23    
Moisture  
Dew Point 42 °F    
Average Humidity 95    
Maximum Humidity 100    
Minimum Humidity 87    
Precipitation  
Precipitation 0.00 in - - ()
Sea Level Pressure  
Sea Level Pressure 30.10 in    
Wind  
Wind Speed 3 mph (South)    
Max Wind Speed 10 mph    
Max Gust Speed -    
Visibility 2 miles    
Events Fog    
Averages and records for this station are not official NWS values.
T = Trace of Precipitation, MM = Missing Value Source: NWS Daily Summary

Daily Weather History Graph

Daily Weather History Graph

Search for Another Location

Airport or City:

Trip Planner

Search our weather history database for the weather conditions in past years. The results will help you decide how hot, cold, wet, or windy it might be!

Date:

Astronomy

Jan. 13, 2013 Rise Set
Actual Time 7:16 AM EST 4:44 PM EST
Civil Twilight 6:45 AM EST 5:15 PM EST
Nautical Twilight 6:11 AM EST 5:49 PM EST
Astronomical Twilight 5:37 AM EST 6:22 PM EST
Moon 8:10 AM EST (1/13) 7:22 PM EST (1/13)
Length of Visible Light 10h 29m
Length of Day
9h 28m
Waxing Crescent, 5% of the Moon is Illuminated
Jan 13
Waxing Crescent
Jan 18
First Quarter
Jan 26
Full
Feb 3
Last Quarter
Feb 10
New

Hourly Weather History & Observations

Time (EST) Temp. Windchill Dew Point Humidity Pressure Visibility Wind Dir Wind Speed Gust Speed Precip Events Conditions
12:08 AM 39.2 °F - 39.2 °F 100% 30.14 in 0.2 mi Calm Calm - N/A Fog Fog
12:53 AM 39.9 °F - 39.0 °F 97% 30.15 in 0.2 mi Calm Calm - N/A Fog Fog
1:53 AM 39.9 °F - 39.0 °F 97% 30.16 in 0.2 mi Calm Calm - N/A Fog Fog
2:53 AM 41.0 °F 39.0 °F 39.9 °F 96% 30.15 in 0.2 mi SE 3.5 mph - N/A Fog Fog
3:53 AM 39.9 °F - 39.9 °F 100% 30.12 in 0.2 mi Calm Calm - N/A Fog Fog
4:53 AM 42.1 °F - 39.9 °F 92% 30.11 in 0.2 mi Calm Calm - N/A Fog Fog
5:20 AM 41.0 °F - 39.2 °F 93% 30.12 in 0.5 mi Calm Calm - N/A Fog Fog
5:35 AM 42.8 °F - 41.0 °F 93% 30.13 in 1.5 mi Calm Calm - N/A   Overcast
5:43 AM 42.8 °F - 41.0 °F 93% 30.13 in 3.0 mi Calm Calm - N/A   Overcast
5:53 AM 42.1 °F 40.2 °F 41.0 °F 96% 30.13 in 2.0 mi South 3.5 mph - N/A   Overcast
6:01 AM 42.8 °F - 41.0 °F 93% 30.12 in 1.0 mi Calm Calm - N/A   Overcast
6:15 AM 42.8 °F - 41.0 °F 93% 30.12 in 0.8 mi Calm Calm - N/A   Mist
6:53 AM 41.0 °F 39.0 °F 39.9 °F 96% 30.14 in 0.5 mi SSE 3.5 mph - N/A Fog Fog
7:15 AM 41.0 °F 39.0 °F 41.0 °F 100% 30.13 in 0.2 mi South 3.5 mph - N/A Fog Fog
7:53 AM 41.0 °F 38.0 °F 39.9 °F 96% 30.15 in 0.2 mi South 4.6 mph - N/A Fog Fog
8:29 AM 41.0 °F 39.0 °F 39.2 °F 93% 30.15 in 0.8 mi South 3.5 mph - N/A   Mist
8:38 AM 41.0 °F 37.1 °F 39.2 °F 93% 30.15 in 1.0 mi South 5.8 mph - N/A   Overcast
8:53 AM 41.0 °F 38.0 °F 39.9 °F 96% 30.15 in 1.2 mi South 4.6 mph - N/A   Overcast
9:53 AM 41.0 °F 37.1 °F 39.9 °F 96% 30.16 in 0.8 mi South 5.8 mph - N/A   Overcast
10:27 AM 42.8 °F 41.1 °F 41.0 °F 93% 30.16 in 1.2 mi South 3.5 mph - N/A   Overcast
10:36 AM 42.8 °F 39.3 °F 39.2 °F 87% 30.16 in 3.0 mi SSW 5.8 mph - N/A   Overcast
10:53 AM 42.1 °F 38.4 °F 41.0 °F 96% 30.16 in 5.0 mi South 5.8 mph - N/A   Overcast
11:14 AM 42.8 °F 40.1 °F 41.0 °F 93% 30.15 in 2.0 mi SSE 4.6 mph - N/A   Overcast
11:34 AM 42.8 °F 39.3 °F 41.0 °F 93% 30.14 in 3.0 mi South 5.8 mph - N/A   Overcast
11:53 AM 42.1 °F 38.4 °F 42.1 °F 100% 30.13 in 3.0 mi SSE 5.8 mph - N/A   Overcast
12:53 PM 44.1 °F 40.1 °F 42.1 °F 93% 30.11 in 6.0 mi South 6.9 mph - N/A   Overcast
1:41 PM 44.6 °F 39.7 °F 42.8 °F 93% 30.09 in 7.0 mi South 9.2 mph - N/A   Overcast
1:53 PM 45.0 °F 40.1 °F 42.1 °F 90% 30.09 in 7.0 mi South 9.2 mph - N/A   Overcast
2:53 PM 45.0 °F 39.7 °F 42.1 °F 90% 30.08 in 10.0 mi South 10.4 mph - N/A   Overcast
3:49 PM 44.6 °F 40.7 °F 42.8 °F 93% 30.07 in 6.0 mi South 6.9 mph - N/A   Overcast
3:53 PM 45.0 °F 42.6 °F 43.0 °F 93% 30.07 in 6.0 mi South 4.6 mph - N/A   Overcast
4:17 PM 44.6 °F 42.2 °F 42.8 °F 93% 30.06 in 2.5 mi South 4.6 mph - N/A   Overcast
4:34 PM 44.6 °F 40.2 °F 42.8 °F 93% 30.06 in 1.5 mi South 8.1 mph - N/A   Overcast
4:53 PM 44.1 °F 39.5 °F 43.0 °F 96% 30.05 in 2.5 mi South 8.1 mph - N/A   Overcast
5:04 PM 44.6 °F 39.7 °F 42.8 °F 93% 30.05 in 3.0 mi South 9.2 mph - N/A   Overcast
5:53 PM 45.0 °F 41.2 °F 43.0 °F 93% 30.04 in 6.0 mi South 6.9 mph - N/A   Overcast
6:53 PM 45.0 °F 42.6 °F 43.0 °F 93% 30.05 in 8.0 mi South 4.6 mph - N/A   Overcast
7:53 PM 45.0 °F 42.6 °F 43.0 °F 93% 30.04 in 5.0 mi SE 4.6 mph - N/A   Overcast
8:22 PM 44.6 °F 43.1 °F 44.6 °F 100% 30.05 in 2.0 mi SSE 3.5 mph - N/A   Overcast
8:34 PM 44.6 °F - 44.6 °F 100% 30.05 in 1.2 mi Calm Calm - N/A   Overcast
8:53 PM 45.0 °F 43.5 °F 44.1 °F 97% 30.04 in 0.8 mi SE 3.5 mph - N/A   Overcast
9:10 PM 44.6 °F 43.1 °F 44.6 °F 100% 30.03 in 1.0 mi SSE 3.5 mph - N/A   Overcast
9:30 PM 44.6 °F 43.1 °F 44.6 °F 100% 30.03 in 0.8 mi South 3.5 mph - N/A   Overcast
9:53 PM 45.0 °F 42.6 °F 44.1 °F 97% 30.03 in 0.8 mi South 4.6 mph - N/A   Mist
10:53 PM 45.0 °F 42.6 °F 45.0 °F 100% 30.02 in 0.5 mi South 4.6 mph - N/A Fog Fog
11:48 PM 44.6 °F 43.1 °F 44.6 °F 100% 30.01 in 0.2 mi SSE 3.5 mph - N/A Fog Fog
11:53 PM 46.0 °F 44.8 °F 45.0 °F 96% 30.02 in 0.2 mi South 3.5 mph - N/A Fog Fog